Regional Weather Roundup
Issued by NWS

Home | Current Version | Previous Version | Graphics & Text | Print | Product List | Glossary On
Versions: 1 2 3 4 5 6 7 8 9 10 11 12 13 14 15 16 17 18 19 20 21 22 23 24 25 26 27 28 29 30 31 32 33 34 35 36 37 38 39 40 41 42 43 44 45 46 47 48 49 50
000
ASUS45 KBOI 221410
RWRID

IDAHO REGIONAL WEATHER ROUNDUP
NATIONAL WEATHER SERVICE BOISE ID
800 AM MDT FRI MAY 22 2015

NOTE: "FAIR" INDICATES FEW OR NO CLOUDS BELOW 12000 FEET
WITH NO SIGNIFICANT WEATHER AND/OR OBSTRUCTIONS TO VISIBILITY

IDZ012-014-221500-
SOUTHWEST IDAHO


CITY           SKY/WX    TMP DP  RH WIND       PRES   REMARKS
BOISE          MOSUNNY   57  47  69 E5        29.89R
CALDWELL       PTSUNNY   55  45  67 SW3       29.90S
MOUNTAIN HOME  CLOUDY    52  45  75 S2        29.89R
$$

IDZ016-017-221500-
SOUTHCENTRAL IDAHO


CITY           SKY/WX    TMP DP  RH WIND       PRES   REMARKS
BURLEY         CLOUDY    53  48  83 SW7       29.91R
JEROME         LGT RAIN  51  47  86 NE12      29.93R FOG
TWIN FALLS     CLOUDY    54  46  74 E3        29.90R
$$

IDZ019>023-221500-
SOUTHEAST IDAHO


CITY           SKY/WX    TMP DP  RH WIND       PRES   REMARKS
IDAHO FALLS    CLOUDY    50  47  89 NE3       29.94S
POCATELLO      PTSUNNY   50  48  93 CALM      29.93R
REXBURG        CLOUDY    52  44  74 NE3       29.95S
$$

IDZ006-010-011-018-031-032-221500-
CENTRAL IDAHO MOUNTAINS


CITY           SKY/WX    TMP DP  RH WIND       PRES   REMARKS
MCCALL         CLOUDY    41  40  96 CALM      29.94R
HAILEY         LGT RAIN  46  43  87 NW8       29.99R
STANLEY          N/A     42  38  85 CALM      30.02R
SALMON         CLOUDY    46  45  93 CALM      29.96S
CHALLIS        MOSUNNY   47  40  76 CALM      29.98R
$$

IDZ002-004-006-007-026-221500-
NORTHERN IDAHO


CITY           SKY/WX    TMP DP  RH WIND       PRES   REMARKS
LEWISTON       MOSUNNY   62  53  72 E3        29.86R
LOWELL           N/A     50  48  93 CALM      29.93S
COEUR D`ALENE  MOSUNNY   57  48  72 CALM      29.87S
MULLAN PASS    SUNNY     51  38  60 CALM      29.99S
$$



USA.gov is the U.S. government's official web portal to all federal, state and local government web resources and services.